Regional Weather Roundup
Issued by NWS

Home | Current Version | Previous Version | Text Only | Print | Product List | Glossary On
Versions: 1 2 3 4 5 6 7 8 9 10 11 12 13 14 15 16 17 18 19 20 21 22 23 24 25 26 27 28 29 30 31 32 33 34 35 36 37 38 39 40 41 42 43 44 45 46 47 48 49 50
000
ASUS43 KOAX 301510
RWRNE

WEATHER ROUNDUP FOR NEBRASKA
NATIONAL WEATHER SERVICE OMAHA NE
1000 AM CDT THU OCT 30 2014

NOTES: SATELLITE DATA IS BEING USED TO AUGMENT CLOUD COVER ABOVE
       12000 FEET.
       "FAIR" INDICATES FEW OR NO CLOUDS BELOW 12,000 FEET WITH NO
       SIGNIFICANT WEATHER AND/OR OBSTRUCTIONS TO VISIBILITY.

  * THESE STATIONS DO NOT REPORT WEATHER SUCH AS RAIN...SNOW OR FOG.

NEZ001>004-019>022-054>056-301600-
NEBRASKA PANHANDLE

CITY           SKY/WX    TMP DP  RH WIND       PRES   REMARKS
SCOTTSBLUFF    SUNNY     41  29  62 NW7       30.34R
ALLIANCE       SUNNY     39  31  72 W9        30.30R WCI  33
CHADRON        SUNNY     45  30  55 W10       30.31R
KIMBALL        SUNNY     45  28  52 NW8       30.34R
SIDNEY         SUNNY     46  30  53 W10       30.34R
$$

NEZ057>060-069>072-079>082-301600-
SOUTHWEST NEBRASKA

CITY           SKY/WX    TMP DP  RH WIND       PRES   REMARKS
NORTH PLATTE   SUNNY     46  32  58 W10       30.26R
IMPERIAL       SUNNY     50  29  44 NW13      30.29R
LEXINGTON      SUNNY     47  32  57 NW14      30.21R
MCCOOK         SUNNY     48  30  49 NW13      30.25R
OGALLALA       SUNNY     50  32  50 NW14      30.29R
$$

NEZ005>010-023>029-035>040-094-301600-
NORTH CENTRAL NEBRASKA

CITY           SKY/WX    TMP DP  RH WIND       PRES   REMARKS
VALENTINE      SUNNY     45  34  65 NW10      30.24R
AINSWORTH      SUNNY     47  35  63 NW16      30.21R
BROKEN BOW     SUNNY     52  35  52 NW21G26   30.19R
O`NEILL        SUNNY     49  38  68 NW17G25   30.15R
ORD            SUNNY     49  36  61 NW14G22   30.16R
THEDFORD       SUNNY     51  35  53 NW15G22   30.23R
$$

NEZ041-046>049-061>064-073>077-083>087-301600-
SOUTH CENTRAL NEBRASKA

CITY           SKY/WX    TMP DP  RH WIND       PRES   REMARKS
GRAND ISLAND   SUNNY     51  37  58 W12       30.16R
AURORA         SUNNY     52  35  52 NW17      30.13R
HASTINGS       SUNNY     52  35  52 NW18      30.16R
HEBRON         SUNNY     53  36  52 NW9       30.13R
HOLDREGE       SUNNY     51  32  48 NW13      30.20R
KEARNEY *      SUNNY     50  34  53 W16       30.19R
YORK           SUNNY     50  37  62 NW17      30.12R
$$

NEZ011>018-030>034-042>045-301600-
NORTHEAST NEBRASKA

CITY           SKY/WX    TMP DP  RH WIND       PRES   REMARKS
NORFOLK        SUNNY     51  39  63 NW14G23   30.08R
ALBION         SUNNY     50  37  60 NW12      30.11S
BLAIR          SUNNY     50  36  59 NW13G20   30.05R
COLUMBUS *       N/A    N/A N/A N/A MISG        N/A
FREMONT        SUNNY     49  40  69 W8        30.08R
TEKAMAH        SUNNY     51  37  58 NW17      30.05R
WAYNE          SUNNY     49  38  64 NW16G23   30.08R
$$

NEZ050>053-065>068-078-088>093-301600-
SOUTHEAST NEBRASKA

CITY           SKY/WX    TMP DP  RH WIND       PRES   REMARKS
LINCOLN        SUNNY     54  39  57 NW9       30.11R
OMAHA EPPLEY   MOSUNNY   50  37  61 N14       30.07R
BEATRICE       SUNNY     52  40  63 NW13      30.09S
FALLS CITY     SUNNY     51  40  65 NW12      30.03R
NEBRASKA CITY  SUNNY     51  33  49 N13G22    30.05R
PLATTSMOUTH    SUNNY     48  36  63 NW9       30.05R
$$

NEZ044-045-051>053-067-301600-
OMAHA AREA

CITY           SKY/WX    TMP DP  RH WIND       PRES   REMARKS
OMAHA EPPLEY   MOSUNNY   50  37  61 N14       30.07R
BLAIR          SUNNY     50  36  59 NW13G20   30.05R
FREMONT        SUNNY     49  40  69 W8        30.08R
MILLARD        SUNNY     50  37  60 NW12      30.06R
OFFUTT AFB     SUNNY     50  37  62 NW14      30.05R
PLATTSMOUTH    SUNNY     48  36  63 NW9       30.05R
WAHOO          FAIR      52  36  54 NW9G20    30.08R
$$



USA.gov is the U.S. government's official web portal to all federal, state and local government web resources and services.